Regional Weather Roundup
Issued by NWS

Home | Current Version | Previous Version | Text Only | Print | Product List | Glossary Off
Versions: 1 2 3 4 5 6 7 8 9 10 11 12 13 14 15 16 17 18 19 20 21 22 23 24 25 26 27 28 29 30 31 32 33 34 35 36 37 38 39 40 41 42 43 44 45 46 47 48 49 50

000
ASUS43 KMKX 230311
RWRWI

WISCONSIN REGIONAL WEATHER ROUNDUP
NATIONAL WEATHER SERVICE MILWAUKEE/SULLIVAN WI
1000 PM CDT SAT JUL 22 2017

NOTE: "FAIR" INDICATES FEW OR NO CLOUDS BELOW 12,000 FEET WITH NO
SIGNIFICANT WEATHER AND/OR OBSTRUCTIONS TO VISIBILITY.

WIZ001-002-006>008-014>016-023>028-230400-
NORTHWEST WISCONSIN

CITY           SKY/WX    TMP DP  RH WIND       PRES   REMARKS
SUPERIOR ARPT  NOT AVBL
ASHLAND        CLOUDY    59  58  96 E7        29.83R
HAYWARD        CLOUDY    67  62  84 E3        29.83R
SIREN          CLEAR     70  58  64 W5        29.84R
CUMBERLAND     CLEAR     72  57  60 NW7       29.84R
RICE LAKE      PTCLDY    73  64  73 W6        29.84R
CHETEK         PTCLDY    74  65  72 NW6       29.83R
LADYSMITH      PTCLDY    73  64  75 S3        29.83F
EAU CLAIRE     CLEAR     70  69  97 SW5       29.81R
MENOMONIE      CLEAR     74  70  88 SW6       29.83R
NEW RICHMOND   CLEAR     71  63  73 NW6       29.85R
OSCEOLA        CLEAR     74  60  61 W5        29.86S
$$

WIZ003>005-009-010-017-018-230400-
NORTH CENTRAL WISCONSIN

CITY           SKY/WX    TMP DP  RH WIND       PRES   REMARKS
MANITOWISH WTR MOCLDY    62  62 100 CALM      29.82S
ARBOR VITAE    CLOUDY    69  63  80 CALM      29.82S
WOODRUFF       CLOUDY    69  63  80 CALM      29.82S
RHINELANDER    CLEAR     64  62  93 W3        29.83S
EAGLE RIVER    CLOUDY    68  61  78 CALM      29.82S
LAND O LAKES   CLOUDY    65  64  94 CALM      29.83F
PHILLIPS       CLEAR     69  69  98 CALM      29.82S
TOMAHAWK         N/A     65  63  93 CALM      29.83S
MEDFORD        PTCLDY    68  64  89 S3        29.83S
MERRILL        PTCLDY    74  67  80 NW3       29.82R
$$

WIZ029-030-035-036-043>047-230400-
CENTRAL WISCONSIN

CITY           SKY/WX    TMP DP  RH WIND       PRES   REMARKS
WAUSAU         MOCLDY    75  68  78 W7        29.80R
MOSINEE        PTCLDY    73  68  83 W7        29.83R
MARSHFIELD     PTCLDY    72  65  78 W6        29.82R
STEVENS POINT  CLOUDY    77  68  73 W5        29.81S
WAUPACA        LGT RAIN  78  74  88 CALM      29.79S HX  80
WAUTOMA        LGT RAIN  76  71  85 SW6       29.81R
WISC RAPIDS    CLOUDY    77  70  79 W7        29.82R
CAMP DOUGLAS   NOT AVBL
$$

WIZ011>013-019>022-031-037>040-048>050-230400-
NORTHEAST WISCONSIN

CITY           SKY/WX    TMP DP  RH WIND       PRES   REMARKS
ANTIGO         MOCLDY    69  67  93 CALM      29.83R
SHAWANO        HVY RAIN  75  67  76 N12       29.80R
OCONTO         CLOUDY    72  68  87 SW12      29.81R
STURGEON BAY     N/A     68  64  87 S9        29.79F
GREEN BAY      MOCLDY    74  70  87 S8        29.78S
MANITOWOC      PTCLDY    70  63  78 S6        29.81S
APPLETON       MOCLDY    75  66  73 S7        29.78S
CLINTONVILLE   MOCLDY    75  68  78 S6        29.77F
OSHKOSH        MOCLDY    75  70  84 S9        29.79F
$$

WIZ032>034-041-042-053>061-230400-
SOUTHWEST WISCONSIN

CITY           SKY/WX    TMP DP  RH WIND       PRES   REMARKS
LA CROSSE      CLOUDY    71  68  90 CALM      29.82F
SPARTA         CLOUDY    70  68  95 W5        29.84R
VIROQUA        CLOUDY    72  71  98 N12G20    29.87R
BOSCOBEL       MOCLDY    75  73  93 CALM      29.83R
PRAIRIE DU CHI CLOUDY    74  72  92 CALM      29.82R
PLATTEVILLE    CLOUDY    76  76 100 CALM      29.84S
$$

WIZ056-057-062-063-064-067-068-230400-
SOUTH CENTRAL WISCONSIN

CITY           SKY/WX    TMP DP  RH WIND       PRES   REMARKS
REEDSBURG      CLEAR     74  74  98 CALM      29.82S
BARABOO/DELLS  CLEAR     72  69  91 SW3       29.82S
LONE ROCK      PTCLDY    73  71  93 SE3       29.81S
MINERAL POINT  PTCLDY    77  73  88 CALM      29.85R
MADISON        MOCLDY    72  70  93 CALM      29.82S
MIDDLETON      CLEAR     72  72 100 CALM      29.84R
WATERTOWN      PTCLDY    72  72 100 CALM      29.82F
MONROE         CLEAR     75  72  88 S3        29.83S
JANESVILLE     PTCLDY    75  73  94 CALM      29.83R
$$

WIZ051-052-058>065-066-070>072-230400-
SOUTHEAST WISCONSIN

CITY           SKY/WX    TMP DP  RH WIND       PRES   REMARKS
MILWAUKEE      PTCLDY    72  67  84 S5        29.83S
WAUKESHA       NOT AVBL
MILWAUKEE/TIMM PTCLDY    70  63  78 CALM      29.83F
RACINE         MOCLDY    73  70  90 S3        29.85R
KENOSHA        CLEAR     73  69  87 SE5       29.84R
FOND DU LAC    PTCLDY    74  69  85 SW5       29.81S
SHEBOYGAN      PTCLDY    68  67  96 SW3       29.81S
WEST BEND      PTCLDY    68  68 100 CALM      29.83S
JUNEAU         PTCLDY    72  69  90 CALM      29.84S
$$

LSZ147-162-230400-
LAKE SUPERIOR

STATION/POSITION TIME  TEMP    WIND        PRES    WAVE
                       AIR SEA DIR/SP/G            HT/PER
                 (UTC) (F)     (DEG/KT/KT) (MB)    (FT/S)
W MID LAKE BUOY  0250   50 48   30/ 10/ 12 1009.7F   2/ 5
DEVILS ISLAND    0200   54      70/ 12/ 14 1009.6F
PORT WING        0240   57      40/  6/ 17 1010.2R
SAXON HARBOR     0240   61      10/  9/ 10 1009.8R
$$

LMZ867-665-643>646-230400-
LAKE MICHIGAN

STATION/POSITION TIME  TEMP    WIND        PRES    WAVE
                       AIR SEA DIR/SP/G            HT/PER
                 (UTC) (F)     (DEG/KT/KT) (MB)    (FT/S)
CHAMBERS ISLAND  0240   71     130/  4/  7 1008.5R
S GREEN BAY BUOY 0230   73 74  160/  8/ 10 1008.6R
N MID LAKE BUOY  0250   69 69   80/  2/  2 1009.5R   0
NORTHPORT PIER   0240   71     150/  5/  6 1009.1R
KEWAUNEE LAKESHO 0248   70     170/  5/  7 1008.7R
SHEBOYGAN LAKESH 0300   71     220/  6/  6 1009.0R
PORT WASHINGTON  0240   71     260/  3/  4 1010.5S
ATWATER BUOY     0109   70 70  220/  2/  2 1010.0R
MILWAUKEE LAKESH 0250   70     180/  2/  3   N/A
S MID LAKE BUOY  0250   70 70  180/  2/  4 1010.1R   0
KENOSHA   LAKESH 0300   72     120/  2/  3 1009.8
$$

TC  - TEMPERATURE IN CELSIUS
VSB - VISIBILITY IN STATUTE MILES
WCI - WIND CHILL INDEX
HX  - HEAT INDEX





USA.gov is the U.S. government's official web portal to all federal, state and local government web resources and services.